DW9750 Weather Reports


time (UTC)temp
F
wind
direction
speed
knots
gust
knots
rain 1hr
in
rain 24hr
in
rain mn
in
humidity
%
barometer
mb
20260506121505 72 101 0.9 2.6 0.00 0.00 0.00 95 1006.4
20260506120006 72 155 0.0 0.9 0.00 0.00 0.00 95 1006.4
20260506114504 72 155 0.0 0.0 0.00 0.00 0.00 95 1006.5
20260506113003 72 82 0.0 2.6 0.00 0.00 0.00 95 1006.3
20260506111502 72 64 1.7 2.6 0.00 0.00 0.00 95 1006.5
20260506110001 72 104 0.0 1.7 0.00 0.00 0.00 95 1006.7
20260506104603 72 125 0.0 1.7 0.00 0.00 0.00 95 1006.7
20260506103100 72 195 0.9 2.6 0.00 0.00 0.00 95 1006.7
20260506101605 72 111 0.0 4.3 0.00 0.00 0.00 95 1006.6
20260506100058 72 135 0.9 4.3 0.00 0.00 0.00 95 1006.4
20260506094621 72 126 0.9 3.5 0.00 0.00 0.00 94 1006.5
20260506093056 72 98 0.9 5.2 0.00 0.00 0.00 94 1006.4
20260506091553 73 126 0.0 2.6 0.00 0.00 0.00 94 1006.3
20260506090051 73 169 0.0 4.3 0.00 0.00 0.00 93 1006.1
20260506084550 73 172 1.7 5.2 0.00 0.00 0.00 92 1006.0
20260506083048 73 177 2.6 6.1 0.00 0.00 0.00 92 1006.0
20260506081546 73 192 2.6 7.0 0.00 0.00 0.00 91 1006.0
20260506073045 74 114 0.9 4.3 0.00 0.00 0.00 90 1006.2
20260506071540 74 142 1.7 4.3 0.00 0.00 0.00 89 1006.4
20260506061536 75 152 0.9 6.1 0.00 0.00 0.00 89 1006.8
20260506044538 75 102 2.6 6.1 0.00 0.00 0.00 88 1006.6
20260506043027 74 85 1.7 5.2 0.00 0.00 0.00 88 1006.6
20260506041527 75 76 2.6 5.2 0.00 0.00 0.00 87 1006.4
20260506040048 75 97 0.9 5.2 0.00 0.00 0.00 86 1006.2
20260506034525 74 104 0.9 3.5 0.00 0.00 0.00 87 1006.1
20260506033024 75 89 0.0 0.9 0.00 0.00 0.00 85 1006.0
20260506031538 75 88 0.0 0.9 0.00 0.00 0.00 84 1005.9
20260506030023 76 91 0.9 2.6 0.00 0.00 0.00 83 1005.7
20260506024522 76 82 0.9 3.5 0.00 0.00 0.00 82 1005.5
20260506023021 76 114 0.0 0.0 0.00 0.00 0.00 81 1005.3
20260506021520 77 106 0.0 2.6 0.00 0.00 0.00 80 1004.9
20260506020019 77 107 0.0 1.7 0.00 0.00 0.00 78 1004.7
20260506014518 78 92 0.0 2.6 0.00 0.00 0.00 77 1004.4
20260506013018 79 128 0.9 3.5 0.00 0.00 0.00 75 1004.1
20260506011517 80 88 0.9 2.6 0.00 0.00 0.00 73 1003.9
20260506010016 81 93 0.9 2.6 0.00 0.00 0.00 72 1003.8
20260506004523 82 203 0.0 1.7 0.00 0.00 0.00 70 1004.0
20260506003016 82 169 1.7 5.2 0.00 0.00 0.00 69 1004.1
20260506001515 83 209 2.6 5.2 0.00 0.00 0.00 68 1004.1
20260506000013 83 227 2.6 5.2 0.00 0.00 0.00 67 1004.0
20260505234512 83 179 2.6 7.0 0.00 0.00 0.00 68 1004.1
20260505233011 84 199 0.9 6.1 0.00 0.00 0.00 67 1003.9
20260505231510 84 216 2.6 7.0 0.00 0.00 0.00 68 1003.8
20260505230012 84 256 0.9 4.3 0.00 0.00 0.00 68 1003.8
20260505224509 84 244 3.5 7.0 0.00 0.00 0.00 65 1004.1
20260505223007 84 256 1.7 6.1 0.00 0.00 0.00 68 1004.0
20260505221510 84 230 2.6 7.0 0.00 0.00 0.00 66 1003.8
20260505220004 84 260 1.7 5.2 0.00 0.00 0.00 66 1004.0
20260505214503 85 266 2.6 8.7 0.00 0.00 0.00 66 1004.0
20260505213003 85 223 3.5 7.0 0.00 0.00 0.00 63 1004.1
20260505211502 85 252 4.3 7.8 0.00 0.00 0.00 64 1004.2
20260505210103 86 229 2.6 7.8 0.00 0.00 0.00 65 1004.4
20260505210001 86 208 3.5 7.8 0.00 0.00 0.00 63 1004.5
20260505204601 85 134 2.6 8.7 0.00 0.00 0.00 65 1004.6
20260505203057 85 263 4.3 8.7 0.00 0.00 0.00 64 1004.8
20260505201556 84 210 2.6 6.1 0.00 0.00 0.00 67 1005.2
20260505200049 83 229 2.6 8.7 0.00 0.00 0.00 68 1005.5
20260505194546 81 294 4.3 7.8 0.00 0.00 0.00 71 1005.8
20260505193041 81 244 3.5 7.8 0.00 0.00 0.00 73 1005.9
20260505191541 81 218 2.6 6.1 0.00 0.00 0.00 72 1006.0
20260505190039 80 195 3.5 7.8 0.00 0.00 0.00 73 1006.3
20260505184533 79 265 4.3 7.8 0.00 0.00 0.00 75 1006.7
20260505183035 78 212 3.5 9.6 0.00 0.00 0.00 76 1006.7
20260505181529 78 237 2.6 7.0 0.00 0.00 0.00 77 1006.9
20260505180025 77 256 3.5 7.0 0.00 0.00 0.00 78 1007.0
20260505174521 75 257 3.5 8.7 0.00 0.00 0.00 82 1007.3
20260505173020 75 272 4.3 8.7 0.00 0.00 0.00 82 1007.3
20260505171522 74 240 3.5 11.3 0.00 0.00 0.00 84 1007.4
20260505170017 73 220 3.5 7.8 0.00 0.00 0.00 85 1007.5
20260505164509 72 246 2.6 7.8 0.00 0.00 0.00 87 1007.4
20260505163008 72 241 3.5 7.0 0.00 0.00 0.00 87 1007.4
20260505161502 71 242 3.5 9.6 0.00 0.00 0.00 87 1007.3
20260505153101 70 236 2.6 9.6 0.00 0.00 0.00 90 1007.3
20260505151556 70 255 3.5 13.0 0.00 0.00 0.00 90 1007.4
20260505130105 67 268 3.5 8.7 0.00 0.00 0.00 93 1006.8
20260505124552 68 211 4.3 8.7 0.00 0.00 0.00 93 1006.7
20260505123045 68 218 2.6 7.8 0.00 0.00 0.00 92 1006.5